Weather History for Crestview, FL

Change the Weather History Date:

Friday, March 1, 2013

  Actual Average Record
Temperature  
Mean Temperature 46 °F -  
Max Temperature 54 °F - - ()
Min Temperature 37 °F - - ()
Degree Days  
Heating Degree Days 20    
Moisture  
Dew Point 30 °F    
Average Humidity 57    
Maximum Humidity 76    
Minimum Humidity 36    
Precipitation  
Precipitation 0.00 in - - ()
Sea Level Pressure  
Sea Level Pressure 30.07 in    
Wind  
Wind Speed 8 mph (NNW)    
Max Wind Speed 12 mph    
Max Gust Speed 16 mph    
Visibility 10 miles    
Events      
T = Trace of Precipitation, MM = Missing Value Source: NWS Daily Summary

Daily Weather History Graph

Daily Weather History Graph

Search for Another Location

Airport:

Trip Planner

Search our weather history database for the weather conditions in past years. The results will help you decide how hot, cold, wet, or windy it might be!

Date:

Astronomy

Mar. 01, 2013 Rise Set
Actual Time 6:12 AM CST 5:44 PM CST
Civil Twilight 5:47 AM CST 6:09 PM CST
Nautical Twilight 5:20 AM CST 6:37 PM CST
Astronomical Twilight 4:52 AM CST 7:05 PM CST
Moon 9:55 PM CST 8:18 AM CST
Length of Visible Light 12h 21m
Length of Day
11h 32m
Waning Gibbous, 83% of the Moon is Illuminated
Mar 1
Waning Gibbous
Mar 4
Last Quarter
Mar 11
New
Mar 19
First Quarter
Mar 27
Full

Hourly Weather History & Observations

Time (CST) Temp. Windchill Dew Point Humidity Pressure Visibility Wind Dir Wind Speed Gust Speed Precip Events Conditions
12:58 AM 46.0 °F 41.4 °F 32.0 °F 58% 30.07 in 10.0 mi NNW 9.2 mph - N/A   Scattered Clouds
1:58 AM 44.2 °F 39.2 °F 30.9 °F 60% 30.06 in 10.0 mi NNW 9.2 mph - N/A   Overcast
2:58 AM 43.0 °F 38.2 °F 29.3 °F 59% 30.05 in 10.0 mi North 8.1 mph - N/A   Overcast
3:58 AM 39.7 °F 34.9 °F 29.7 °F 67% 30.04 in 10.0 mi North 6.9 mph - N/A   Partly Cloudy
4:58 AM 37.6 °F 33.1 °F 30.7 °F 76% 30.06 in 10.0 mi NNW 5.8 mph - N/A   Mostly Cloudy
5:58 AM 38.3 °F 35.9 °F 30.7 °F 74% 30.08 in 10.0 mi NW 3.5 mph - N/A   Mostly Cloudy
6:58 AM 38.7 °F 34.3 °F 31.3 °F 75% 30.09 in 10.0 mi NW 5.8 mph - N/A   Scattered Clouds
7:58 AM 41.2 °F 36.6 °F 29.7 °F 64% 30.11 in 10.0 mi NNW 6.9 mph - N/A   Mostly Cloudy
8:55 AM 44.1 °F 39.0 °F 27.1 °F 51% 30.12 in 10.0 mi NNW 9.2 mph - N/A   Overcast
9:55 AM 45.7 °F 41.5 °F 27.5 °F 49% 30.11 in 10.0 mi NNW 8.1 mph - N/A   Overcast
10:55 AM 49.1 °F - 28.6 °F 45% 30.10 in 10.0 mi NW 11.5 mph 16.1 mph N/A   Overcast
12:55 PM 52.3 °F - 29.7 °F 42% 30.04 in 10.0 mi WNW 6.9 mph 16.1 mph N/A   Overcast
1:55 PM 53.2 °F - 29.3 °F 40% 30.03 in 10.0 mi NW 6.9 mph - N/A   Overcast
2:55 PM 54.3 °F - 27.9 °F 36% 30.01 in 10.0 mi WNW 9.2 mph - N/A   Overcast
3:55 PM 54.1 °F - 28.2 °F 37% 30.01 in 10.0 mi NNW 10.4 mph - N/A   Mostly Cloudy
4:55 PM 54.5 °F - 28.9 °F 38% 30.01 in 10.0 mi NNW 8.1 mph - N/A   Mostly Cloudy
5:55 PM 49.6 °F - 30.0 °F 47% 30.02 in 10.0 mi NW 4.6 mph - N/A   Mostly Cloudy
7:55 PM 41.9 °F - 32.5 °F 69% 30.06 in 7.0 mi Calm Calm - N/A   Scattered Clouds
8:55 PM 41.9 °F 39.0 °F 32.9 °F 70% 30.09 in 7.0 mi NNW 4.6 mph - N/A   Scattered Clouds
9:55 PM 42.3 °F 37.9 °F 31.8 °F 67% 30.11 in 7.0 mi NNW 6.9 mph - N/A   Partly Cloudy
10:55 PM 41.0 °F 34.3 °F 30.2 °F 65% 30.12 in 10.0 mi NNW 11.5 mph - N/A   Clear
11:55 PM 38.8 °F 31.6 °F 28.8 °F 67% 30.13 in 10.0 mi NW 11.5 mph - N/A   Clear